RH
93 92 90 85 86 85 83 86 90 93 86 79 75 69 71 74 80 81 99 81 70 66 66 97 100 90 90 76 77 88 88 86 94 99 94 84 75 72
91 91 91 90 87 85 86 84 87 95 98 87 84 72 58 61 63 69 79 84 80 79 68 76 82 80 81 72 77 88 92 88 89 77 92 90 90 84
99 97 96 95 92 93 93 89 87 89 98 82 78 66 79 78 76 68 65 88 91 97 87 69 66 63 78 81 89 90 87 85 81 75 76 78 77 83
100 99 93 97 97 97 99 99 94 96 99 96 85 81 81 82 81 88 73 67 77 99 97 77 73 75 74 79 76 75 83 80 82 86 86 83 76 70
99 95 88 88 77 81 99 99 99 97 93 93 85 80 70 70 78 79 78 77 66 76 95 92 77 70 70 72 73 80 77 78 81 86 77 80 83 79
90 99 96 94 81 81 89 87 97 98 98 99 92 78 83 82 88 89 83 81 75 79 80 89 80 74 72 72 71 72 70 80 94 91 85 80 78 77
65 86 96 96 93 87 89 95 89 80 94 98 100 92 80 80 82 84 92 89 78 76 74 73 76 69 67 68 75 78 82 87 93 89 80 74 73 77
83 99 99 97 96 98 97 96 99 98 77 92 99 99 91 86 82 81 76 75 72 62 75 65 72 70 66 65 61 64 76 81 82 77 72 68 73 78
99 99 99 100 100 100 91 90 99 93 94 90 86 99 99 92 83 84 87 84 78 76 89 86 78 76 76 85 80 85 82 77 77 79 77 82 79 73
99 99 100 99 99 99 97 91 99 100 94 98 99 98 98 99 98 98 98 99 97 96 97 98 91 90 96 96 87 86 88 90 86 87 93 83 82 86
100 100 100 100 99 99 99 95 93 99 99 100 99 98 100 99 99 99 98 98 98 100 100 100 90 84 97 99 98 92 98 99 98 98 98 98 93 98
98 99 99 99 99 99 94 99 100 100 100 98 98 99 94 94 98 99 98 98 99 100 97 99 98 100 100 99 99 98 100 98 99 100 88 100 100 100
72 95 97 96 91 82 91 99 98 98 100 100 100 100 100 100 99 100 97 100 99 99 99 100 98 99 100 99 100 100 97 99 100 100 98 100 100 99
36 43 43 37 33 33 38 80 100 100 100 100 100 100 100 99 99 100 100 100 100 100 100 100 100 99 99 100 99 99 100 98 100 99 98 94 95 89
34 36 38 38 34 36 37 37 44 78 96 100 100 100 100 100 100 98 99 100 100 100 98 96 99 100 99 99 99 99 98 97 96 90 76 64 55 47
37 41 38 45 47 41 43 42 41 44 51 75 92 93 89 83 68 63 64 67 70 70 64 62 75 91 98 98 65 50 52 56 52 51 49 47 44 44
33 36 40 48 53 60 55 56 50 47 52 54 60 63 62 61 63 69 62 60 62 65 66 68 70 67 63 64 55 54 54 50 48 49 53 54 55 53
33 40 55 59 52 51 51 57 58 53 52 57 57 69 76 76 78 85 98 95 89 91 88 88 76 70 70 73 71 75 74 70 70 68 62 54 50 51
48 46 50 53 54 56 55 56 57 58 61 64 64 66 70 79 98 100 100 100 100 100 100 100 99 100 100 100 89 85 81 85 82 73 76 87 75 57
43 45 52 54 55 56 55 57 60 63 65 66 68 71 82 84 99 100 100 100 99 99 100 100 100 100 100 99 100 94 97 96 92 77 70 70 63 53
53 62 49 50 52 52 55 58 63 68 70 71 71 73 80 90 100 100 100 100 99 99 100 99 99 100 100 98 99 100 100 100 82 71 65 61 57 51
96 72 56 47 51 56 63 67 72 76 72 71 74 75 80 92 100 100 100 100 100 100 100 100 100 100 99 100 100 100 80 75 73 68 66 67 68 67
97 96 62 54 54 55 64 72 80 81 74 72 73 69 70 79 92 99 100 100 100 100 100 100 100 99 100 99 100 100 98 74 66 62 64 68 70 66
Wind_Speed
19 19 20 21 22 24 27 27 28 32 31 28 29 29 30 33 35 37 33 34 40 40 34 37 43 39 37 41 45 40 36 30 35 39 35 34 33 32
19 19 20 21 21 23 25 28 31 33 36 34 34 35 37 37 39 39 38 35 35 36 37 31 35 39 36 35 37 43 39 37 27 27 24 32 34 37
18 19 22 21 23 24 25 27 30 32 35 40 36 35 33 34 35 36 40 30 29 33 33 37 37 37 36 33 35 37 37 37 33 33 37 32 32 30
22 22 22 20 21 21 23 25 29 30 32 38 38 35 32 32 32 31 33 34 36 27 29 30 33 34 39 36 34 36 37 37 36 33 34 35 38 38
23 24 24 23 24 24 23 24 24 25 29 34 37 35 36 33 33 31 30 27 34 36 24 26 27 29 32 36 37 40 40 42 39 38 39 39 39 39
23 25 25 23 24 24 23 22 23 23 27 29 32 34 29 27 29 28 28 27 26 25 26 23 23 26 27 28 31 36 37 38 37 35 34 36 39 38
25 24 22 23 22 23 23 21 22 24 24 26 26 30 32 29 23 20 23 20 22 24 23 25 23 24 23 23 28 31 33 34 34 33 34 36 37 38
25 25 23 24 22 20 22 21 20 21 24 24 25 26 25 26 25 21 18 19 23 21 24 26 24 23 21 20 22 24 24 25 28 31 33 36 36 35
20 21 20 17 17 23 25 24 22 22 21 22 24 23 24 20 15 16 18 21 23 21 14 15 12 17 15 21 21 20 21 22 23 26 29 30 31 34
17 17 17 15 16 21 24 24 21 25 23 20 19 21 22 22 20 18 17 18 17 16 16 17 17 14 14 16 20 22 24 26 27 27 28 30 30 30
16 16 17 17 17 18 20 22 22 25 26 21 20 20 19 19 19 17 19 20 21 22 21 21 22 23 20 23 26 27 23 25 26 28 28 30 31 27
14 15 16 17 17 16 17 18 16 16 22 23 21 21 21 21 20 19 22 22 23 23 24 21 21 23 22 27 27 27 27 30 30 28 30 27 28 27
17 17 16 17 18 18 16 14 14 15 17 19 21 21 21 20 19 17 19 18 18 19 20 19 22 21 19 15 15 20 24 25 26 26 24 26 27 28
17 18 18 16 15 14 14 12 13 12 13 13 13 14 14 15 15 14 13 14 14 15 16 17 17 18 17 18 16 16 18 21 20 21 20 21 22 21
17 18 18 16 15 15 14 13 13 13 11 11 10 10 10 11 11 11 11 10 11 12 13 15 15 17 19 18 17 16 18 19 22 21 21 22 22 22
17 18 17 17 16 14 14 13 11 11 10 9 10 9 9 9 9 8 8 8 8 8 9 9 10 12 13 14 14 18 17 14 13 14 17 18 20 21
18 16 15 15 15 16 13 13 11 10 9 8 8 8 7 6 6 6 5 5 6 7 8 8 8 8 9 11 13 14 14 15 15 15 17 18 16 17
17 15 14 15 15 15 14 13 11 9 7 7 6 7 7 6 6 6 6 4 4 5 6 8 8 8 7 6 7 7 9 10 10 11 12 16 17 14
17 15 15 15 14 14 12 11 10 9 7 7 6 7 7 6 5 5 5 6 6 6 6 7 7 6 5 5 8 9 7 11 14 13 12 12 16 12
16 16 16 15 14 13 11 10 9 9 8 8 7 7 8 7 5 4 5 6 6 7 7 7 6 6 7 8 11 12 12 12 12 14 13 12 14 10
18 18 17 16 15 12 11 9 8 8 7 7 7 7 8 7 6 5 6 7 8 7 8 7 8 10 9 10 11 13 13 15 13 12 11 13 13 10
23 18 18 18 17 14 12 10 8 7 6 6 6 5 5 5 5 6 6 8 8 9 9 9 8 7 8 9 12 14 12 5 8 8 9 10 10 9
25 20 19 19 17 15 13 10 9 7 5 4 4 4 4 5 5 4 5 6 8 9 9 9 8 5 8 10 12 10 10 8 8 6 5 8 12 16
Wind_Direction
277 275 271 271 271 271 273 276 279 284 283 285 284 284 285 279 273 279 269 265 268 262 262 247 240 247 239 238 247 246 261 269 259 239 238 244 246 249
280 279 275 275 275 276 276 279 279 277 283 286 285 286 287 279 276 272 273 270 268 265 255 247 241 244 251 242 245 241 246 239 242 252 251 242 248 247
270 273 276 277 279 278 280 284 285 283 281 290 291 293 287 281 276 276 270 269 271 263 259 246 247 243 243 239 240 240 242 253 253 247 248 247 251 254
271 265 265 270 274 276 276 280 284 285 282 284 291 295 290 286 278 275 279 265 263 274 258 249 244 243 240 242 242 243 243 245 246 242 244 247 254 257
284 282 282 276 277 276 281 289 291 291 288 284 289 292 290 292 295 285 279 271 259 273 278 261 247 244 243 243 246 245 246 249 248 248 252 252 253 253
288 282 277 279 277 282 285 289 296 292 291 290 288 291 306 296 290 283 282 267 264 273 269 265 261 250 247 247 248 247 249 247 245 247 248 249 250 251
297 294 284 273 275 278 283 286 292 296 297 293 287 293 296 298 291 295 272 271 263 265 270 267 255 255 252 252 250 250 248 246 248 250 252 253 254 253
303 304 289 272 268 276 277 274 280 292 290 295 298 288 297 296 293 281 281 265 269 263 279 266 261 266 262 258 259 258 256 254 251 251 252 253 252 252
307 308 309 297 272 270 271 278 280 274 280 287 288 291 286 292 291 279 268 265 266 271 267 265 262 264 263 251 250 242 243 245 248 253 255 255 258 258
298 303 305 300 286 281 281 278 283 280 276 277 282 282 282 282 283 284 280 275 274 279 278 279 276 270 259 254 253 249 249 249 250 253 256 259 258 259
299 299 299 298 292 292 294 291 284 277 281 278 273 275 279 280 280 278 276 280 279 277 276 274 269 269 265 262 262 266 263 257 258 258 263 261 260 264
294 297 297 297 296 297 295 295 297 278 272 273 273 273 273 274 275 273 276 275 272 274 272 267 265 266 266 269 261 260 262 264 265 262 271 265 261 259
294 293 292 295 298 301 298 300 290 281 274 271 271 273 275 276 276 275 277 273 272 262 259 264 261 254 249 254 248 251 254 254 261 260 266 261 260 256
298 297 300 303 304 304 304 300 301 292 288 280 276 274 275 276 277 275 271 267 261 260 263 264 261 258 257 257 254 254 253 256 254 257 259 263 264 263
296 294 296 300 304 309 311 309 299 291 288 290 289 288 286 285 282 275 267 265 264 264 266 265 264 266 258 254 256 258 263 264 264 266 267 267 267 266
301 296 295 296 299 299 302 302 304 302 294 289 288 286 285 290 293 287 281 276 269 266 259 256 257 259 264 260 264 263 266 259 262 258 263 263 263 262
305 304 298 295 296 295 295 296 292 292 294 296 298 300 302 298 298 303 284 266 263 277 282 280 271 263 256 259 262 263 262 265 268 268 266 268 268 271
298 301 297 292 294 293 291 291 293 290 294 299 299 306 305 311 314 318 326 319 298 289 295 296 303 297 294 283 273 267 282 284 277 280 281 282 280 282
292 290 287 290 292 289 287 285 289 294 298 301 306 308 305 308 317 320 323 327 322 321 318 318 330 337 330 304 287 283 277 300 299 296 293 286 291 303
282 283 283 283 284 285 283 279 283 287 292 296 298 303 304 307 308 317 318 312 312 314 315 323 323 310 307 302 297 289 307 305 303 303 303 293 297 311
273 281 284 283 283 283 279 272 271 275 284 290 293 298 298 304 305 308 314 311 308 305 306 311 303 304 300 295 300 310 305 299 305 310 316 317 326 334
265 268 273 277 279 278 272 264 259 263 277 293 303 310 304 294 307 313 313 307 306 304 306 309 311 307 312 302 297 300 309 311 304 306 310 312 313 309
268 260 269 272 271 272 267 258 248 254 269 287 290 313 324 313 293 287 295 298 298 301 306 310 315 308 308 303 302 308 319 332 325 317 303 309 316 315